Starlink 30714

operational
NORAD ID: 57939 Int'l Des: 2023-148 Owner: SPXS Country: US Constellation: starlink
LEOCIRCULAR

Starlink 30714について

説明を読み込み中...

リアルタイム位置

3D地球を読み込み中...

次回通過

高度履歴

Altitude vs Time

uPlot chart will show altitude changes over time

軌道要素

1 57939U 23148E 25304.59806816 -.00001319 00000-0 -32414-4 0 9992
2 57939 53.1619 264.1051 0001471 84.4077 275.7091 15.30191632118655
Epoch: Oct 31, 2025 • Age: 7 hours

現在のステータス

高度 487.9 km
速度 7.62 km/s
衛星直下点 -36.71°S, 111.76°E
打ち上げ日 Sep 25, 2023
運用期間 2 years
タイプ internet

技術仕様

分類 Payload
質量 730.00 kg
乾燥質量 700.00 kg
総質量 730.00 kg
長さ 0.30 m
直径 4.10 m
スパン 29.00 m
形状 Box + pan
製造者 SPXS
バスタイプ Starlink V2M
フェーズステータス In Orbit
所有者/国 SPXS/US

大規模コンステレーション

Loading constellations...